Regional Weather Roundup
Issued by NWS

Home | Current Version | Previous Version | Graphics & Text | Print | Product List | Glossary Off
Versions: 1 2 3 4 5 6 7 8 9 10 11 12 13 14 15 16 17 18 19 20 21 22 23 24 25 26 27 28 29 30 31 32 33 34 35 36 37 38 39 40 41 42 43 44 45 46 47 48 49 50

000
ASUS43 KTOP 151859
RWRKS

WEATHER ROUNDUP FOR KANSAS
NATIONAL WEATHER SERVICE GOODLAND KS
200 PM CDT MON SEP 15 2014

NOTE:  "FAIR" INDICATES FEW OR NO CLOUDS BELOW 12,000 FEET WITH NO
SIGNIFICANT WEATHER AND/OR OBSTRUCTIONS TO VISIBILITY.

KSZ001>006-013>018-027>032-041>047-152000-
NORTHWEST KANSAS

CITY           SKY/WX    TMP DP  RH WIND       PRES   REMARKS
GOODLAND       MOSUNNY   62  50  64 N8        30.32F
HAYS           MOSUNNY   70  54  56 NE21      30.23S
HILL CITY      SUNNY     69  51  52 N18G24    30.26F
RUSSELL        MOSUNNY   71  55  56 NE18G24   30.20S
$$

KSZ061>065-074>080-084>089-152000-
SOUTHWEST KANSAS

CITY           SKY/WX    TMP DP  RH WIND       PRES   REMARKS
DODGE CITY     LGT RAIN  60  57  89 N17       30.23S FOG
ELKHART          N/A     59  55  87 N14         N/A
GARDEN CITY    LGT RAIN  60  55  83 NE16      30.25R
GREAT BEND     CLOUDY    63  55  77 NE14      30.22R
LIBERAL        CLOUDY    64  55  72 N17       30.23R
PRATT          CLOUDY    64  59  82 N21       30.19S
$$

KSZ066>073-081>083-090>101-152000-
SOUTHEAST KANSAS

CITY           SKY/WX    TMP DP  RH WIND       PRES   REMARKS
CHANUTE        CLOUDY    84  65  52 W14G25    30.08F
COFFEYVILLE    MOSUNNY   83  68  60 SW10      30.09F
HUTCHINSON     CLOUDY    70  62  76 N16G23    30.16R
NEWTON         CLOUDY    75  61  60 N17       30.16R
PARSONS        PTSUNNY   87  68  52 SW12G20   30.10F
WICHITA INTL   PTSUNNY   84  62  47 NW12      30.10F
WICHITA JABRA  CLOUDY    82  63  52 NW13      30.11S
WINFIELD       CLOUDY    85  64  49 W14       30.10F
$$

KSZ007>012-019>026-033>040-048>060-102>105-152000-
NORTHEAST KANSAS

CITY           SKY/WX    TMP DP  RH WIND       PRES   REMARKS
CONCORDIA      SUNNY     68  54  60 N16G24    30.21R
EMPORIA        CLOUDY    73  64  73 N12       30.13R
LAWRENCE       CLOUDY    69  61  75 N14       30.14R
MANHATTAN      CLOUDY    67  59  75 NE10      30.18R
OLATHE IND     LGT RAIN  66  65  96 N9        30.13R FOG
OLATHE EXE     LGT RAIN  66  64  93 N10G20    30.12R FOG
SALINA         CLOUDY    66  57  72 N14G23    30.20R
TOPEKA BILLARD CLOUDY    68  62  81 N18G26    30.16R
TOPEKA FORBES  CLOUDY    68  61  78 N10       30.15R
$$


USA.gov is the U.S. government's official web portal to all federal, state and local government web resources and services.